Location: Normandy Village
(37.8755°N, 122.2655°W)
Time: 09:07:30
(UTC+00:00)

ATLAS CENTAUR R/B - Pass Details

Date: 22 September 2019
Orbit: 451 x 698 km, 64.7° (Epoch: 08 October)

Event Time Altitude Azimuth Distance (km) Brightness Sun altitude
Rises 12:29:35 0° 343° (NNW) 2,935 5.0 -17.8°
Reaches altitude 10° 12:32:46 10° 5° (N) 1,970 4.4 -17.2°
Maximum altitude 12:35:30 16° 43° (NE) 1,573 4.4 -16.7°
Drops below altitude 10° 12:38:06 10° 82° (E) 1,867 5.4 -16.2°
Sets 12:41:00 0° 105° (ESE) 2,701 6.0 -15.6°
